EW4441 Weather Reports


Display with metric or nautical units.
time (UTC)temp
F
wind
direction
speed
MPH
gust
MPH
rain 1hr
in
rain 24hr
in
rain mn
in
humidity
%
barometer
mb
20260504174608 94 58 0.0 2.0 0.00 0.00 0.00 100 1014.7
20260504173100 93 321 0.0 4.0 0.00 0.00 0.00 100 1014.8
20260504171658 93 121 0.0 3.0 0.00 0.00 0.00 100 1014.9
20260504081525 76 123 0.0 0.0 0.00 0.00 0.00 100 1013.1
20260504050012 79 119 0.0 0.0 0.00 0.00 0.00 100 1015.3
20260504044515 79 119 0.0 0.0 0.00 0.00 0.00 100 1015.5
20260504043012 79 119 0.0 0.0 0.00 0.00 0.00 100 1015.4
20260504041510 79 119 0.0 0.0 0.00 0.00 0.00 100 1015.7
20260504040011 79 119 0.0 0.0 0.00 0.00 0.00 100 1015.7
20260504034509 79 119 0.0 0.0 0.00 0.00 0.00 100 1015.9
20260504031506 80 118 0.0 0.0 0.00 0.00 0.00 100 1015.7
20260504030006 80 119 0.0 0.0 0.00 0.00 0.00 100 1015.7
20260504024507 80 119 0.0 0.0 0.00 0.00 0.00 100 1015.6
20260504023004 81 119 0.0 0.0 0.00 0.00 0.00 100 1015.6
20260504021504 81 119 0.0 0.0 0.00 0.00 0.00 100 1015.5
20260504020004 82 118 0.0 0.0 0.00 0.00 0.00 100 1015.2
20260504014504 82 119 0.0 0.0 0.00 0.00 0.00 100 1015.0
20260504013011 82 118 0.0 0.0 0.00 0.00 0.00 100 1015.0
20260504011505 82 119 0.0 0.0 0.00 0.00 0.00 100 1014.9
20260504010005 82 119 0.0 0.0 0.00 0.00 0.00 100 1014.7
20260504004506 83 117 0.0 0.0 0.00 0.00 0.00 100 1014.4
20260504003003 83 118 0.0 0.0 0.00 0.00 0.00 100 1014.3
20260504001502 83 115 0.0 0.0 0.00 0.00 0.00 100 1014.2
20260504000001 83 115 0.0 0.0 0.00 0.00 0.00 100 1014.1
20260503234600 84 117 0.0 0.0 0.00 0.00 0.00 100 1014.1
20260503233103 84 106 0.0 0.0 0.00 0.00 0.00 100 1013.5
20260503231559 84 117 0.0 0.0 0.00 0.00 0.00 100 1013.4
20260503230058 85 113 0.0 0.0 0.00 0.00 0.00 100 1013.3
20260503224600 86 110 0.0 0.0 0.00 0.00 0.00 100 1013.4
20260503223058 87 111 0.0 0.0 0.00 0.00 0.00 100 1013.4
20260503221601 88 110 0.0 0.0 0.00 0.00 0.00 100 1013.4
20260503220104 88 115 0.0 0.0 0.00 0.00 0.00 100 1013.3
20260503214558 91 95 0.0 0.0 0.00 0.00 0.00 100 1013.4
20260503213055 92 318 0.0 0.0 0.00 0.00 0.00 100 1013.5
20260503211553 93 82 0.0 0.0 0.00 0.00 0.00 100 1013.5
20260503210057 93 103 0.0 0.0 0.00 0.00 0.00 100 1013.4
20260503204603 93 117 0.0 0.0 0.00 0.00 0.00 100 1013.7
20260503203059 93 104 0.0 0.0 0.00 0.00 0.00 100 1013.6
20260503201652 94 115 0.0 0.0 0.00 0.00 0.00 100 1013.7
20260503200050 94 117 0.0 0.0 0.00 0.00 0.00 100 1013.9
20260503194606 95 108 0.0 0.0 0.00 0.00 0.00 100 1014.0
20260503193048 95 119 0.0 0.0 0.00 0.00 0.00 100 1014.0
20260503191546 96 96 0.0 0.0 0.00 0.00 0.00 100 1014.1
20260503190054 96 116 0.0 0.0 0.00 0.00 0.00 100 1014.2
20260503184543 94 97 0.0 0.0 0.00 0.00 0.00 100 1014.4
20260503183051 95 119 0.0 0.0 0.00 0.00 0.00 100 1014.5
20260503181543 94 101 0.0 0.0 0.00 0.00 0.00 100 1014.9
20260503180049 93 117 0.0 0.0 0.00 0.00 0.00 100 1015.0